Theta_e
338 339 339 338 338 336 336 335 334 335 335 333 332 331 332 333 334 337 338 337 336 336 337 336 334 333 333 333 333 333 332 331 331 331 330 330 331 334 337 337 336 336 335 336 336 336 336 334 333 333 334 333 331 332 334 335 334 333 333 332 331 331 331 331 331 331 331 331 330 330 330 331 331 331 331 331 331 331 331 331 331 331 332 332 332
337 338 337 338 338 337 336 336 336 335 334 332 329 329 331 331 331 335 338 337 336 338 337 335 333 332 332 333 334 333 332 331 331 330 330 330 331 334 337 337 338 338 338 337 337 337 334 333 333 332 333 333 330 330 332 332 331 331 331 330 330 330 330 330 330 330 329 329 329 329 330 330 330 330 329 329 330 330 330 330 330 330 331 331 331
337 338 339 339 338 336 335 337 337 336 335 335 334 329 332 333 331 334 336 336 336 336 335 333 332 330 332 334 333 333 332 332 331 330 330 330 331 333 336 338 338 340 340 339 338 335 333 333 332 332 331 333 330 330 332 331 330 329 329 329 328 328 328 328 329 329 329 328 329 329 329 329 329 329 328 328 328 328 328 329 329 329 329 330 330
337 338 339 338 338 338 337 336 336 337 337 336 336 337 336 336 334 335 337 336 340 339 337 334 332 329 328 333 334 332 331 332 332 331 331 331 331 331 333 335 338 339 338 338 337 334 333 335 334 333 331 333 331 330 329 330 330 329 329 328 328 328 328 328 328 328 328 327 327 328 328 327 327 327 327 328 327 328 328 328 328 328 328 329 330
334 334 336 336 336 338 337 336 336 337 337 338 338 338 337 337 336 337 339 339 336 334 339 334 332 331 331 331 332 332 333 333 333 331 330 330 330 330 331 333 333 338 339 337 338 337 335 335 333 332 331 331 330 330 329 330 329 328 326 326 328 329 328 328 328 328 327 326 327 326 327 328 328 328 327 328 328 328 328 328 328 328 328 329 329
335 335 336 335 337 338 338 336 335 336 337 339 336 336 336 335 334 335 340 338 336 335 333 331 331 331 331 330 331 332 332 333 333 332 331 330 329 329 329 330 331 332 334 335 335 338 337 335 333 332 332 330 330 330 328 328 328 327 327 327 327 327 327 327 328 328 328 327 328 330 330 330 330 330 329 329 329 329 329 329 329 329 329 329 329
337 335 334 334 335 335 336 337 337 338 339 339 337 337 334 333 334 332 332 335 337 336 334 332 331 331 330 331 330 331 332 332 334 333 331 330 329 328 329 329 330 330 332 332 338 338 337 335 333 332 331 330 331 331 330 327 329 328 328 327 327 327 327 328 327 327 327 328 328 329 330 330 330 330 330 330 330 330 330 330 330 330 330 330 330
338 336 333 333 334 334 335 337 338 338 338 338 336 334 333 333 333 333 331 332 334 336 334 332 330 329 330 330 330 331 331 331 332 333 332 331 328 328 328 328 329 330 334 330 330 334 337 336 336 334 331 331 331 331 329 328 328 328 328 327 327 327 327 327 327 326 327 328 328 330 331 331 330 331 331 330 330 329 330 330 330 330 330 330 330
337 335 333 333 334 334 335 337 336 337 337 337 336 334 333 333 330 333 333 331 331 331 333 331 329 330 330 332 331 332 333 332 332 332 333 331 329 329 328 329 330 337 331 329 330 332 335 336 334 334 334 332 331 329 329 329 329 330 329 327 328 327 326 327 326 326 326 328 330 331 331 331 331 331 331 330 330 329 330 330 329 329 330 330 331
336 335 334 334 334 334 334 335 335 336 335 336 335 334 332 330 330 331 333 334 333 334 332 332 332 331 332 332 332 332 334 334 333 334 331 331 331 330 330 330 331 331 329 329 330 330 331 333 334 334 334 334 332 330 329 328 329 329 328 327 327 326 326 327 327 327 327 328 331 331 330 330 330 331 331 331 331 331 331 331 330 331 330 330 330
336 335 333 333 334 333 333 334 334 333 335 336 334 334 332 331 330 330 334 334 333 334 332 332 333 332 329 329 331 331 333 335 335 333 331 332 332 333 333 331 332 330 328 329 329 329 328 328 328 328 330 335 333 331 330 329 329 328 328 328 328 327 328 329 329 329 330 330 330 330 330 330 330 330 330 332 332 331 331 331 331 331 330 330 330
336 336 334 334 334 334 333 333 333 333 333 334 334 333 333 331 330 331 331 333 335 334 333 332 331 329 327 327 331 333 333 333 334 332 331 331 334 333 332 332 331 330 330 329 329 328 327 327 328 325 326 332 333 334 332 330 332 329 329 329 330 329 329 329 329 331 331 331 330 330 330 330 330 330 331 332 332 332 332 331 331 331 330 330 330
337 336 335 337 335 334 333 332 332 333 332 332 333 333 334 333 331 331 330 329 331 334 334 332 328 325 325 325 328 333 333 332 333 331 331 331 333 332 331 331 331 331 330 329 328 328 327 327 326 325 325 325 330 334 332 332 333 329 329 330 331 330 329 329 330 332 331 331 330 330 330 330 330 331 331 332 332 332 332 331 330 330 330 331 330
337 335 337 335 334 333 332 333 333 333 333 333 332 334 333 333 331 329 331 330 329 332 332 329 323 322 319 319 321 324 328 330 331 332 332 331 331 332 330 330 331 331 331 331 329 328 328 328 327 326 325 326 326 328 328 328 330 332 329 330 330 330 330 330 331 332 332 330 330 330 330 331 331 331 331 331 331 331 330 329 328 328 330 330 330
337 336 336 336 335 334 333 333 333 333 333 333 333 332 332 332 332 330 328 330 331 333 332 329 323 324 323 319 316 317 321 324 327 330 331 330 330 331 331 330 331 331 331 332 331 329 328 329 330 327 326 326 325 326 325 326 325 334 331 330 329 329 330 331 332 333 331 330 330 330 331 331 331 331 331 332 331 331 329 328 328 327 327 329 329
335 335 335 337 336 335 334 333 333 334 333 332 331 332 332 332 332 331 330 327 328 329 333 330 327 324 316 316 318 319 314 319 321 325 330 328 329 329 330 330 330 330 331 331 331 332 330 330 331 331 328 327 326 325 325 323 329 332 331 331 331 330 330 332 333 333 331 331 331 331 331 331 331 331 332 331 331 330 329 328 328 327 327 326 326
333 333 334 336 337 337 335 334 333 333 333 332 331 332 332 332 332 331 330 329 327 328 331 330 328 328 323 317 315 314 315 318 322 321 327 327 327 328 330 329 329 329 329 330 330 330 331 330 331 331 330 329 326 324 324 325 326 331 330 331 332 331 331 332 334 334 333 332 332 332 331 331 331 331 331 331 330 328 328 328 327 327 327 326 326
334 333 333 336 336 336 336 334 333 332 332 332 333 332 332 332 332 331 330 331 329 327 328 330 329 329 328 324 321 316 317 321 321 314 323 325 326 326 328 329 329 329 329 329 330 329 330 331 331 330 331 331 330 325 324 325 328 327 326 328 330 329 328 331 334 335 335 334 332 331 331 331 331 331 330 330 329 328 328 328 327 326 326 326 325
334 334 334 336 333 333 333 334 334 333 333 332 332 332 333 333 333 332 331 331 330 326 327 327 328 329 329 328 327 327 325 320 317 319 317 322 325 325 325 329 329 329 329 329 331 330 330 331 331 331 330 330 330 329 326 326 329 327 331 330 329 327 326 326 331 334 334 334 333 332 332 332 331 331 331 330 329 328 327 327 326 326 325 325 325
333 332 332 334 334 332 331 332 333 334 333 333 332 333 333 333 333 332 332 330 329 327 326 328 325 326 329 327 327 328 328 326 325 321 319 318 320 324 326 329 328 328 330 330 330 330 329 329 329 330 330 330 331 330 327 326 326 327 328 328 327 327 326 327 325 325 330 333 335 334 333 333 332 331 331 329 328 328 327 326 326 325 325 324 324
333 332 333 334 334 332 333 333 333 334 333 332 333 333 332 332 331 329 327 327 327 330 328 327 327 326 326 326 326 325 327 326 327 324 318 317 316 320 322 327 326 325 327 329 331 331 329 329 329 331 330 330 331 331 327 325 326 326 327 326 327 326 326 325 322 322 322 331 332 333 333 333 332 332 331 330 328 327 327 326 325 325 324 324 324
333 333 333 335 334 332 331 333 333 333 333 333 333 333 331 331 332 330 329 327 329 329 329 329 328 327 327 326 324 323 324 323 324 323 324 322 318 319 322 322 320 323 326 327 328 329 329 330 330 331 329 329 331 331 329 326 326 326 325 325 327 327 326 325 318 318 318 326 333 332 333 333 332 333 332 330 329 328 327 326 325 325 324 324 323
330 331 333 333 330 330 330 329 330 332 333 332 332 334 332 331 329 328 328 327 328 330 329 329 327 326 327 326 325 324 323 321 322 324 323 320 319 319 322 324 322 320 324 327 328 328 329 329 329 329 330 329 330 331 330 329 328 327 324 325 326 328 327 323 318 316 318 326 333 332 333 333 333 333 332 332 330 329 328 327 325 325 324 324 324
329 329 329 331 331 331 331 330 330 328 329 330 330 331 330 329 329 329 329 329 329 330 329 328 326 325 326 326 326 327 326 324 325 326 324 323 322 320 321 323 324 324 327 327 329 327 329 329 329 329 330 330 330 331 331 331 330 327 323 324 325 326 326 325 320 318 317 325 328 332 333 332 331 332 333 333 332 330 327 325 325 324 324 324 325
328 329 329 329 330 329 329 329 329 329 329 329 329 330 331 329 329 329 328 327 328 328 328 328 327 325 325 327 327 328 328 327 328 327 327 326 324 321 322 325 320 320 324 326 325 329 329 329 329 329 330 330 331 331 331 331 329 326 323 323 322 322 323 326 322 317 316 318 323 329 331 332 332 332 331 331 332 329 327 326 323 321 321 324 323
328 328 330 330 329 329 329 329 330 330 331 330 329 330 331 330 329 328 327 328 328 327 328 328 328 328 328 327 328 327 328 331 330 329 327 325 322 321 321 321 320 320 322 325 326 323 326 328 330 329 330 330 330 330 330 330 328 324 323 324 321 320 319 321 322 318 316 315 315 319 322 326 328 328 328 329 329 323 320 319 317 317 315 316 322
328 329 330 329 328 328 327 327 328 329 329 328 329 329 330 331 330 329 329 331 328 327 327 327 327 327 328 329 329 330 330 331 331 329 329 326 325 323 321 317 317 317 316 321 323 323 324 326 329 329 329 328 329 330 330 329 327 323 322 324 322 318 317 318 321 321 316 316 314 314 316 321 322 321 321 321 320 319 321 320 318 316 314 316 320
327 328 328 328 328 328 328 327 328 328 328 330 330 329 329 329 330 330 330 332 329 327 328 328 327 327 327 329 329 329 330 332 331 330 330 328 327 325 323 321 317 313 316 316 318 320 326 323 328 330 329 328 330 330 330 328 326 323 326 324 323 319 315 315 317 319 316 316 314 311 315 318 317 317 317 319 320 322 321 321 319 315 314 317 323
327 328 327 328 328 328 328 327 327 327 328 328 327 327 328 328 329 330 329 329 330 329 328 326 327 328 327 327 328 329 330 332 331 330 330 329 328 327 326 323 321 317 314 314 316 318 322 325 321 326 330 329 328 329 329 328 324 324 325 324 324 322 316 314 314 317 316 313 310 311 314 318 318 318 319 322 323 324 321 319 317 315 316 322 323
328 328 328 327 327 328 326 327 327 327 326 326 327 327 327 328 329 328 329 329 327 327 327 327 327 328 327 327 329 328 330 331 331 331 330 328 327 326 326 326 324 319 317 314 315 319 320 324 325 324 327 327 329 329 330 328 321 325 326 326 324 323 315 312 312 315 315 312 309 307 311 314 315 317 320 323 324 322 318 317 316 315 320 323 323
327 327 327 326 326 326 326 326 326 325 326 326 327 327 329 328 328 326 327 328 326 326 327 327 327 327 327 326 329 329 329 330 331 331 331 329 327 327 327 326 323 322 319 317 313 319 322 320 323 327 327 328 329 329 329 328 324 326 327 326 326 320 315 314 312 313 314 313 310 309 313 317 314 316 320 322 323 321 318 320 320 320 322 323 317
327 327 326 326 327 327 327 326 325 326 326 326 326 326 326 327 326 325 326 327 326 325 325 327 327 327 327 327 328 328 329 330 331 331 329 329 329 328 326 325 324 324 321 319 316 316 321 322 322 324 328 328 329 328 327 327 325 322 327 327 325 318 317 318 311 313 313 312 311 314 320 320 317 319 321 322 323 321 321 322 320 320 320 316 313
327 326 326 326 327 328 327 326 327 327 324 323 325 327 326 325 324 325 326 326 325 324 326 325 327 327 327 327 327 329 329 329 330 329 328 327 328 327 325 324 324 323 322 318 317 315 319 324 324 325 327 328 327 328 326 326 324 323 324 326 322 321 321 320 318 311 311 310 310 310 313 313 315 325 321 318 320 319 317 316 314 313 317 315 310
327 327 327 327 327 328 327 326 324 325 326 327 327 325 325 324 325 326 324 323 325 325 324 324 326 328 327 327 328 329 328 329 328 330 329 328 327 326 326 326 325 323 323 320 319 318 317 321 322 325 325 328 324 326 325 323 322 322 324 323 323 324 323 322 321 317 309 311 309 309 311 311 311 316 314 312 312 312 312 312 312 311 314 309 306
327 327 328 327 327 327 326 324 323 324 324 325 324 325 324 324 324 323 325 324 324 322 323 323 327 327 327 326 327 327 329 329 326 325 326 328 327 326 325 324 324 323 324 324 320 319 319 319 323 322 323 325 323 323 324 324 322 324 323 323 323 325 325 323 323 321 308 308 308 309 310 310 311 312 311 311 310 310 309 309 309 309 309 307 304
326 327 327 327 326 325 326 327 326 326 325 325 326 326 326 326 326 326 325 325 325 324 325 325 326 325 324 324 324 325 325 325 324 325 326 325 324 324 323 323 323 323 323 324 324 321 320 319 321 322 323 322 320 323 324 323 322 323 324 324 324 324 324 324 323 322 312 307 308 309 309 310 310 310 310 310 310 309 309 309 308 308 307 306 305
326 326 326 326 325 324 322 323 321 319 319 321 325 325 326 325 325 326 325 325 324 325 323 325 326 325 324 324 324 324 326 325 322 323 325 323 324 323 322 322 322 324 324 323 324 323 320 320 320 321 322 322 321 321 322 320 321 323 324 322 323 323 322 323 323 322 309 307 308 309 309 308 309 309 309 309 308 308 307 308 307 306 306 306 305
323 324 324 324 323 318 316 315 315 314 313 314 315 319 325 327 326 325 325 325 325 325 324 326 326 326 325 325 326 325 323 323 323 324 325 323 323 322 322 323 323 324 322 322 322 323 321 321 320 319 319 318 318 319 320 321 319 317 319 321 322 323 321 320 320 320 316 315 315 313 308 307 307 308 308 308 308 306 307 307 306 306 306 306 305
318 318 317 316 317 316 315 314 313 312 310 310 309 312 317 323 324 325 326 325 325 325 325 324 324 326 326 325 324 324 323 324 323 321 323 323 323 323 323 323 323 322 320 319 320 321 320 320 318 319 318 318 317 316 318 320 319 316 313 312 315 321 320 318 316 317 317 317 315 311 311 311 310 309 308 308 308 307 307 305 305 305 304 304 303
314 316 314 313 313 312 312 311 310 309 307 306 305 307 310 315 318 322 324 324 325 324 325 324 326 325 326 325 324 324 323 325 323 322 323 324 323 322 323 324 322 320 319 319 320 318 317 316 316 314 317 316 316 317 318 317 315 312 314 311 310 314 316 317 316 315 316 317 316 315 312 310 308 307 306 306 306 305 305 305 306 306 305 303 303
310 311 312 312 310 309 309 308 308 306 305 304 303 302 305 313 314 319 324 324 324 325 325 325 325 325 325 322 320 322 326 326 321 321 322 323 323 321 322 323 321 320 319 318 318 316 314 314 314 315 315 314 315 314 313 312 312 312 312 311 310 315 316 314 315 318 317 316 316 314 315 313 311 309 309 308 307 305 305 306 306 307 304 302 302
308 308 308 309 308 307 306 305 305 304 303 302 302 301 302 310 319 323 323 322 323 323 323 323 323 322 320 318 318 317 312 310 308 305 306 308 316 323 323 322 322 320 320 319 317 316 315 314 313 313 313 313 314 314 314 316 316 315 311 310 309 311 313 311 312 311 317 317 315 314 315 316 314 312 312 310 311 308 307 307 307 307 305 302 302
306 306 306 306 306 307 305 303 302 302 301 299 297 296 299 307 319 320 319 319 320 321 323 322 321 321 321 321 321 322 317 314 307 299 298 297 298 300 301 306 316 323 321 317 316 316 315 314 313 313 313 313 315 317 316 314 314 314 312 312 311 310 309 308 307 309 315 316 312 312 312 316 316 310 307 305 306 305 306 307 305 305 305 303 302
304 304 303 303 304 305 305 304 302 300 299 297 295 296 298 301 309 316 314 313 313 313 315 319 322 322 321 320 320 320 320 319 313 308 303 300 298 299 298 298 297 296 300 314 316 315 316 315 314 313 314 312 313 315 312 312 311 311 312 313 311 311 310 308 307 308 313 317 312 310 308 309 309 305 303 303 302 302 301 300 301 301 302 302 301
303 302 301 301 301 303 303 302 301 299 297 295 295 296 298 299 302 310 312 311 309 309 310 312 315 319 318 316 315 314 313 318 318 314 313 312 305 302 303 303 302 299 296 298 307 316 317 315 315 314 315 314 314 314 315 314 312 312 312 313 310 311 311 311 308 308 313 317 313 309 307 308 306 304 304 305 304 303 302 300 300 300 300 300 300
301 301 300 299 299 300 300 300 300 299 297 295 294 296 298 300 301 306 311 309 308 307 307 307 308 310 313 312 312 311 311 310 309 314 318 314 312 311 309 307 306 305 302 300 304 306 313 319 317 315 316 318 316 317 318 315 315 314 314 312 311 311 311 310 312 311 311 317 313 311 308 308 307 304 302 303 303 302 302 300 299 299 299 299 299
300 299 299 298 298 298 299 299 298 298 296 293 294 295 297 300 301 304 310 309 307 306 305 305 305 305 306 309 310 309 309 308 305 302 315 313 312 310 308 307 307 305 303 304 310 312 312 313 313 312 312 314 317 319 320 320 318 317 316 315 315 314 313 312 309 309 309 311 314 312 306 307 307 303 302 302 302 302 302 299 299 299 299 299 298
300 300 299 299 298 298 298 298 298 297 296 293 293 294 296 298 302 309 308 307 305 305 304 304 303 303 304 304 305 307 308 309 304 302 309 315 313 311 310 309 307 306 303 300 298 302 307 310 310 309 307 305 302 308 314 320 319 317 316 317 317 314 312 309 306 304 303 306 307 310 308 306 306 302 302 303 303 301 302 301 299 300 299 299 298
297 297 297 297 298 298 298 298 298 297 297 294 292 293 295 297 302 306 306 305 304 303 302 302 302 301 301 302 302 303 304 302 298 298 303 311 315 313 311 310 309 308 307 306 299 297 297 297 296 296 296 296 297 297 299 305 314 316 317 314 312 312 309 306 303 300 301 302 303 306 310 304 304 303 301 303 302 300 301 301 301 298 299 298 298
296 296 296 296 297 297 297 297 297 297 297 295 293 293 294 296 302 305 304 303 302 301 301 301 301 300 301 301 301 299 299 298 294 296 301 311 315 314 313 312 310 310 309 310 310 306 296 296 297 297 298 298 298 298 298 298 300 308 316 312 312 311 307 306 302 299 300 301 302 305 308 305 305 304 302 303 302 302 301 300 299 299 298 297 297
296 296 296 295 295 296 297 297 299 296 297 297 294 293 293 294 301 305 303 301 300 299 299 299 299 299 299 299 298 296 297 295 293 294 296 306 312 313 312 311 310 310 310 312 312 311 311 311 311 309 307 306 308 307 304 299 301 304 308 311 313 311 308 305 302 302 301 301 302 306 307 305 304 305 303 302 300 301 302 300 299 300 298 298 297
Wind_Speed
3 3 2 2 1 1 1 2 2 4 3 5 6 6 6 7 7 6 6 6 6 6 6 5 5 2 5 5 3 7 7 6 6 6 6 5 6 8 11 11 11 11 11 10 10 10 10 8 8 8 9 8 6 9 10 11 11 11 10 10 9 9 9 9 9 10 10 10 10 9 10 11 11 11 11 12 13 13 13 14 14 15 15 15 15
3 3 2 4 4 3 2 3 4 4 3 4 4 5 5 6 6 6 6 6 6 7 6 5 4 3 4 5 4 8 7 8 7 6 6 6 6 6 11 9 8 9 10 9 11 11 8 9 9 8 9 9 8 9 11 9 9 8 8 8 9 9 9 8 8 10 9 9 9 10 11 11 11 11 11 12 13 13 14 13 13 14 15 15 15
2 3 4 4 5 4 4 4 5 5 4 4 4 5 5 5 6 6 7 6 7 5 5 4 4 3 3 4 5 7 8 7 7 7 6 6 5 5 6 9 7 6 8 10 11 10 9 9 7 8 8 11 9 9 10 8 8 7 7 7 7 8 8 9 9 9 9 9 10 11 11 11 11 11 11 12 13 14 14 13 13 13 14 15 14
3 3 4 5 4 4 4 4 5 4 4 4 5 4 4 6 7 7 7 7 5 4 2 1 3 4 3 3 3 5 8 8 8 8 7 6 6 5 5 5 8 9 10 9 10 8 7 10 10 9 7 11 8 8 8 8 9 9 9 9 9 9 9 9 9 9 9 10 10 11 11 12 12 13 13 12 13 14 14 14 14 14 14 15 15
6 5 3 2 2 3 4 4 4 3 3 3 4 5 4 2 3 5 5 4 4 2 1 1 3 5 2 4 4 5 6 8 8 8 8 7 6 6 5 4 4 7 9 10 7 8 10 10 10 8 8 7 7 8 8 8 8 8 7 8 9 10 9 9 10 10 9 10 11 12 13 14 14 14 14 14 15 14 15 15 15 14 14 15 15
5 4 3 3 3 4 4 4 4 2 2 4 5 4 3 1 2 1 3 5 4 3 2 2 4 3 4 3 5 4 5 8 9 9 8 7 7 7 6 6 5 4 4 7 4 7 10 10 9 8 8 7 7 8 7 8 7 9 9 8 9 10 9 9 10 10 10 11 12 13 13 14 14 14 15 16 16 16 16 16 15 15 15 15 15
4 4 3 3 4 5 4 4 4 4 4 4 3 4 3 2 0 1 2 0 3 4 3 4 3 3 3 5 5 7 2 5 8 9 8 8 7 7 6 6 5 4 4 4 6 10 10 10 9 8 7 8 8 8 8 8 9 9 9 9 9 9 10 10 10 11 11 12 13 13 14 14 15 15 16 15 15 15 15 16 16 16 16 15 14
6 6 5 5 5 6 5 4 4 4 5 4 3 5 6 3 1 1 1 1 1 2 4 4 3 2 1 4 3 4 7 10 4 9 8 8 7 7 7 6 6 5 5 4 5 7 10 9 8 8 8 9 8 8 8 8 9 9 9 10 10 10 10 11 11 11 12 11 13 14 14 15 15 15 16 16 14 15 14 14 15 14 15 14 13
7 6 5 6 6 6 5 4 3 3 4 5 6 6 5 4 2 0 1 1 2 2 3 4 3 1 2 3 2 4 2 2 10 3 8 9 8 8 7 7 7 8 5 5 4 5 9 8 9 9 8 9 9 8 9 9 9 9 9 10 10 10 10 10 10 11 12 11 13 14 14 15 15 15 15 15 14 14 14 14 13 13 13 13 13
5 5 5 4 4 4 5 4 3 4 5 5 6 4 3 3 3 2 2 1 0 2 3 1 0 0 3 4 4 4 1 3 3 11 4 8 9 9 8 7 7 7 7 6 5 5 4 7 11 9 8 8 8 9 9 8 10 10 10 10 10 11 11 11 12 11 12 12 13 13 13 13 14 14 15 14 14 13 13 12 12 12 11 12 13
5 5 5 5 4 5 5 4 3 4 5 5 5 4 3 3 4 3 1 2 2 2 1 1 1 2 2 3 4 1 2 2 1 3 8 5 8 8 7 7 7 8 7 6 6 5 5 4 5 4 5 8 7 10 10 10 11 9 10 12 11 11 12 12 12 12 12 12 12 12 12 12 13 13 13 14 13 13 14 13 12 11 11 12 13
6 6 6 5 5 5 6 4 4 4 5 5 5 5 5 4 5 4 4 3 3 3 2 1 2 2 2 1 2 3 1 2 1 1 6 3 7 7 7 7 7 8 7 7 6 6 6 5 4 5 3 7 9 7 10 9 9 10 11 11 11 11 11 12 12 13 13 13 12 11 11 12 12 12 13 13 14 14 14 13 13 12 12 13 14
6 6 6 6 6 5 5 5 4 5 5 6 5 5 4 5 4 4 5 4 4 4 3 4 3 1 3 1 0 2 2 1 4 1 2 7 2 5 6 6 6 7 7 7 7 7 6 6 6 5 5 3 5 8 10 8 8 11 11 11 12 12 12 13 13 14 14 13 13 13 11 11 11 11 11 13 13 14 13 12 12 12 13 14 14
6 5 5 6 5 5 5 5 5 6 6 5 4 5 5 5 4 3 4 6 5 6 4 5 2 4 2 0 1 3 2 2 3 2 3 2 4 6 6 6 7 7 6 7 6 7 7 7 6 5 5 4 3 4 6 6 5 9 10 11 12 12 13 14 13 14 13 13 13 13 11 11 10 10 11 12 13 13 12 12 11 13 13 14 14
6 5 4 5 6 6 6 6 5 5 5 6 6 6 6 7 6 6 4 3 4 3 6 7 4 2 2 2 1 2 2 4 3 3 3 4 6 4 5 6 7 7 6 6 6 6 6 6 6 6 5 5 4 4 6 5 4 9 10 10 12 13 13 13 14 14 14 13 13 12 10 11 10 11 12 12 13 12 12 12 11 11 12 13 13
1 2 3 6 7 8 7 7 7 6 7 7 7 8 7 7 6 7 5 5 4 5 6 7 5 7 1 3 2 3 1 6 6 3 4 4 6 2 5 5 6 6 6 6 6 6 6 6 6 6 7 6 5 5 5 4 6 8 10 8 9 12 14 15 15 15 14 12 11 11 10 10 10 11 12 12 11 11 12 12 12 11 11 11 11
3 4 8 9 9 8 8 7 7 7 6 7 7 8 8 7 8 7 8 8 7 4 5 7 7 8 6 3 2 1 4 2 5 2 5 6 5 4 4 6 6 6 6 5 5 5 7 7 5 5 6 7 6 6 5 5 5 3 6 9 9 10 15 15 17 16 15 13 13 12 11 10 11 11 11 9 10 10 11 12 12 12 12 12 13
4 8 8 8 6 6 6 6 6 6 6 7 7 6 8 9 9 8 8 8 7 6 5 6 8 8 6 5 5 5 5 1 5 5 3 3 4 1 3 5 6 6 4 5 6 5 5 7 6 6 6 6 6 6 6 5 5 4 5 7 12 10 11 14 17 18 17 15 13 13 12 12 12 11 10 11 11 11 12 12 12 12 12 13 13
8 6 5 7 3 4 3 4 5 6 6 7 8 9 8 8 7 8 9 8 7 8 8 7 5 6 6 3 2 2 5 6 5 4 6 3 4 4 3 4 5 6 5 5 5 6 6 6 7 7 6 5 5 5 6 6 7 6 7 10 13 12 10 11 13 16 16 16 15 14 13 13 12 12 11 11 11 12 12 12 12 12 12 13 13
8 4 3 3 4 2 4 6 8 8 7 7 9 8 7 6 8 9 8 7 8 9 8 7 9 7 7 6 4 4 4 3 1 4 5 7 4 2 2 4 3 4 5 6 6 6 7 6 7 7 6 6 6 5 6 7 7 7 7 12 13 13 10 13 12 12 14 15 16 15 15 14 12 12 12 12 12 12 12 12 12 12 13 13 13
8 5 0 4 5 4 5 7 8 8 7 7 8 8 9 9 8 7 7 7 7 9 7 8 8 7 8 7 6 5 5 4 3 3 3 4 3 7 6 3 3 2 3 2 4 5 7 7 7 7 7 6 7 6 6 7 7 7 7 12 14 13 11 9 11 13 12 13 15 15 15 15 13 13 13 13 12 12 12 12 12 13 13 13 13
6 3 4 4 2 1 4 8 7 7 7 9 10 10 10 10 10 10 10 8 7 8 9 8 8 7 9 8 8 4 4 5 5 5 1 3 5 8 7 9 8 5 4 6 5 5 5 6 6 6 6 6 6 7 6 8 7 7 8 14 13 12 11 10 10 11 11 10 13 14 15 16 14 14 14 14 13 12 12 12 13 13 13 13 14
4 4 5 5 6 8 8 8 9 8 7 7 9 10 10 9 8 6 8 10 10 10 9 8 6 7 9 8 10 10 10 9 8 8 5 3 2 4 5 7 8 6 7 7 7 6 5 5 6 5 6 6 6 6 7 7 9 9 13 14 13 13 12 11 10 10 11 9 12 14 15 15 15 14 15 15 14 13 12 12 13 13 13 13 14
3 4 4 6 6 6 6 7 6 4 6 7 7 7 5 6 6 7 10 11 11 10 10 9 10 9 8 8 8 7 7 6 7 7 7 5 7 6 6 4 3 3 4 7 6 6 6 7 6 5 6 6 6 7 7 7 8 13 12 15 14 14 13 11 12 11 11 10 9 13 13 10 12 13 14 15 17 14 13 13 13 13 13 13 14
4 5 5 4 5 6 6 6 4 7 9 9 9 8 9 8 8 8 6 8 8 7 8 9 10 10 9 8 8 7 7 6 7 8 7 6 7 6 5 6 4 4 3 6 4 4 4 6 6 5 5 5 6 6 7 7 6 11 13 12 15 13 12 12 12 11 11 10 9 10 12 12 12 12 12 13 16 14 14 12 12 10 10 11 13
6 6 6 5 4 5 5 5 5 6 8 7 7 7 7 7 9 9 8 9 9 10 11 10 9 10 8 8 8 9 9 7 7 7 7 7 6 7 6 2 3 5 1 5 4 4 4 4 4 6 5 5 5 5 6 7 6 12 15 10 12 14 13 13 13 11 11 10 9 8 8 9 10 9 10 11 12 12 11 12 11 10 9 9 11
7 7 6 6 6 6 4 6 6 5 4 5 5 6 8 7 7 8 8 7 9 11 7 8 8 7 8 9 9 8 9 8 7 7 7 8 8 7 8 7 2 3 3 2 3 8 4 4 8 6 7 5 5 5 7 6 8 13 14 9 8 14 13 13 13 11 10 10 9 7 5 5 7 10 9 12 12 13 13 13 11 9 8 8 8
6 6 7 6 7 6 5 4 5 5 5 6 6 6 5 5 7 7 8 6 8 11 11 10 9 9 6 5 7 7 6 7 7 7 7 7 7 6 7 8 9 5 3 3 4 5 5 4 4 6 5 6 7 6 7 9 7 14 13 8 7 8 12 13 12 11 9 9 8 7 6 7 8 8 9 9 10 14 14 14 11 8 7 7 6
6 5 6 6 6 6 5 6 7 5 6 5 5 4 4 5 7 7 8 7 8 11 9 9 9 8 7 7 6 6 6 6 6 6 6 6 6 8 8 10 9 8 7 6 6 6 6 8 5 5 8 7 5 4 7 7 9 11 8 8 8 7 10 12 12 11 9 11 10 9 8 8 9 8 11 12 11 12 15 14 12 9 8 6 7
6 6 7 7 6 6 6 6 6 6 4 4 5 6 6 6 6 5 6 6 8 4 4 8 9 7 7 8 7 6 6 6 7 7 7 7 7 7 7 5 6 9 6 8 6 5 5 6 6 7 8 9 7 7 6 6 11 12 8 8 8 8 12 12 12 11 11 12 11 10 9 8 9 9 11 14 15 15 15 14 13 11 9 10 10
7 8 8 7 7 6 5 6 5 5 5 4 3 3 3 2 3 1 2 3 3 5 7 7 5 7 7 7 5 5 4 6 7 7 5 7 7 7 6 5 5 5 7 6 5 3 6 6 6 5 9 10 8 7 7 7 10 12 9 8 8 11 13 11 13 12 12 12 12 11 9 9 9 10 11 13 14 15 15 14 11 11 12 11 11
7 7 7 8 8 7 6 6 6 6 5 3 1 3 3 1 1 2 0 1 2 5 8 3 4 5 6 7 6 4 5 6 6 6 6 5 5 5 6 5 5 5 6 5 4 4 0 4 6 5 7 10 11 11 9 7 10 15 8 8 9 11 9 7 12 13 13 12 12 10 10 10 8 11 11 13 14 13 13 14 14 13 12 11 13
7 8 8 8 8 7 7 6 4 4 2 2 1 1 4 3 3 1 2 3 2 3 5 2 1 4 5 6 7 7 2 4 4 4 5 5 3 2 6 4 5 3 5 3 4 6 5 4 4 4 7 10 8 10 9 8 8 8 5 7 9 8 7 7 7 11 12 13 12 11 10 10 10 13 13 13 14 15 15 14 14 13 12 13 13
8 8 8 7 7 7 6 5 4 2 2 4 3 3 4 7 4 2 1 0 0 2 3 5 4 3 3 4 4 4 8 7 4 4 3 8 7 6 8 7 6 6 7 7 6 8 8 4 6 7 7 8 7 8 9 9 8 7 6 7 7 8 7 7 6 7 11 11 12 11 10 10 11 12 13 13 14 14 14 14 14 13 13 14 14
8 7 8 8 8 6 6 4 4 3 4 4 3 4 3 4 4 1 3 0 1 1 2 3 3 3 3 4 3 1 1 2 1 2 4 2 9 8 6 4 5 6 6 6 8 7 9 8 9 9 8 9 8 9 9 9 9 9 8 8 7 6 5 6 6 4 9 10 12 10 10 11 11 12 13 13 14 14 14 13 14 13 12 13 13
9 9 9 9 9 9 9 7 8 8 5 3 4 5 6 5 4 3 3 3 3 2 1 1 1 2 1 3 5 4 2 1 3 2 1 2 2 5 9 9 9 9 8 7 6 7 7 9 8 10 9 10 4 8 8 7 9 8 8 8 7 7 7 7 7 6 8 10 11 10 10 11 11 11 12 13 13 13 13 13 13 12 12 12 11
9 8 8 9 10 12 12 12 12 11 10 9 8 6 4 4 4 3 1 2 3 4 4 4 2 3 4 2 1 2 0 0 5 4 3 3 4 3 7 9 9 8 6 7 6 6 8 9 7 6 7 6 5 7 8 8 7 7 7 9 8 7 8 6 6 6 8 9 9 9 10 10 10 10 11 11 12 12 12 13 13 12 12 11 11
12 11 11 9 11 12 11 11 10 10 10 9 9 8 6 4 3 2 2 4 1 3 3 3 3 1 1 1 2 3 6 1 2 6 7 9 8 6 5 5 6 4 2 1 2 6 9 8 9 6 5 7 6 6 9 9 9 7 7 7 7 6 7 6 4 4 5 6 5 5 6 8 10 11 12 11 12 12 12 12 11 11 10 10 10
12 12 12 13 11 11 10 10 9 9 9 7 9 8 8 6 5 5 4 2 1 1 2 1 3 2 3 2 1 1 5 7 8 4 5 9 7 6 5 4 3 6 4 1 6 6 2 6 5 7 8 5 7 8 8 9 9 7 8 8 7 6 6 7 6 4 5 4 4 7 7 9 9 8 10 11 11 11 11 10 9 9 9 10 10
12 12 12 12 11 11 11 10 10 9 9 8 8 7 6 6 5 4 2 1 2 3 4 2 2 2 1 1 2 5 5 6 6 9 8 7 6 5 5 5 5 7 6 5 5 5 0 3 5 5 6 8 6 6 6 7 7 4 6 6 9 8 6 5 7 10 6 6 6 6 4 4 5 5 6 6 8 9 9 8 9 9 10 10 10
10 11 12 12 12 13 12 11 11 11 8 9 8 9 7 7 4 3 5 5 5 6 5 6 5 3 4 3 2 2 5 5 8 9 7 5 5 6 4 4 5 4 5 3 5 6 3 2 4 3 7 7 8 7 6 7 10 10 6 5 6 9 8 7 3 5 10 10 6 5 6 7 6 5 5 4 3 4 5 7 6 9 9 9 10
11 10 11 11 11 11 11 12 12 11 9 7 14 17 8 3 7 7 7 7 7 5 6 6 7 6 3 2 3 9 11 11 10 10 11 9 3 4 6 4 5 5 5 5 5 6 7 6 4 5 8 4 3 2 5 1 2 3 4 5 9 7 7 4 4 1 3 5 8 7 4 4 5 5 5 4 4 5 4 5 5 7 8 10 10
12 12 11 13 11 11 11 11 12 11 10 11 20 17 17 13 9 8 8 9 9 9 7 7 6 5 5 5 5 7 8 7 8 11 12 10 10 12 11 6 4 8 8 8 6 7 7 5 4 6 9 9 6 5 5 3 3 5 5 4 8 9 8 9 6 1 2 5 2 4 3 5 5 5 4 4 3 2 2 4 7 10 11 11 9
12 12 13 12 11 11 10 12 13 12 11 19 20 20 17 16 13 10 9 9 9 9 9 9 8 7 7 8 9 8 8 8 8 8 12 15 13 12 11 11 10 9 7 3 3 2 4 6 5 5 5 1 4 6 4 3 3 4 3 6 4 7 8 5 4 6 1 4 6 6 4 3 5 6 5 3 3 3 3 3 6 6 7 8 8
10 13 12 13 13 12 13 13 13 13 11 20 20 20 17 17 15 13 10 10 11 11 11 11 10 10 9 9 9 8 7 11 7 8 8 9 11 11 11 13 14 13 11 9 11 8 5 5 4 3 5 3 3 4 3 4 7 2 1 3 3 5 5 7 5 3 2 3 9 6 4 2 2 5 7 3 3 3 5 8 11 12 13 13 12
12 12 12 13 12 13 13 12 12 14 15 20 21 20 18 18 16 13 11 12 12 13 10 11 10 11 10 9 8 8 7 6 6 4 9 8 7 8 9 8 8 10 11 11 8 7 5 4 6 3 1 3 3 3 8 8 8 6 6 3 3 5 6 5 3 4 2 1 9 7 5 3 3 6 6 3 3 4 4 7 13 13 14 14 13
11 11 11 12 12 12 12 11 11 13 14 22 20 20 19 18 17 13 11 11 11 12 12 12 11 9 10 9 9 8 7 8 6 6 7 7 7 10 10 10 9 9 10 9 7 7 8 8 6 6 5 5 4 5 5 5 8 8 7 7 6 6 9 9 6 3 5 5 3 6 5 5 1 5 5 4 3 5 4 4 9 12 13 13 12
9 9 10 11 13 13 12 12 13 14 15 24 22 21 19 16 15 11 11 12 12 12 13 13 12 10 11 10 10 10 9 10 10 12 7 7 7 10 10 9 10 11 11 8 11 13 10 8 6 7 6 6 6 5 5 7 6 7 6 7 7 8 9 6 6 1 2 2 2 3 6 5 2 8 4 3 4 5 4 4 6 9 11 12 12
10 11 10 10 10 12 14 14 14 14 16 22 24 22 20 17 13 11 11 11 12 13 13 12 10 12 13 10 9 9 11 10 12 11 10 8 8 9 10 10 9 10 9 8 11 13 15 15 13 12 13 14 14 14 11 9 7 8 8 8 7 7 8 6 3 3 2 1 3 1 8 8 4 6 6 2 3 5 4 4 4 5 7 10 11
10 9 7 9 10 11 13 15 13 13 14 19 23 21 20 18 13 11 10 10 12 12 11 12 10 10 16 26 18 10 11 10 15 17 15 9 8 8 8 8 9 8 5 4 4 4 6 10 12 13 14 14 16 17 16 13 10 4 8 10 8 7 6 7 5 3 2 2 2 0 8 7 7 7 9 5 4 3 4 3 4 4 6 8 10
9 7 8 9 9 10 11 11 16 15 13 17 22 21 21 19 13 10 10 10 12 11 10 10 10 10 11 15 20 16 12 13 20 19 18 12 7 7 5 8 8 8 4 2 4 7 6 8 8 8 10 11 10 10 12 17 15 11 6 4 6 7 7 6 7 6 5 1 1 1 8 8 9 7 10 6 4 2 2 2 3 3 4 5 6
Wind_Direction
215 219 197 243 192 166 182 232 252 260 243 219 211 213 195 191 196 205 203 215 227 246 251 242 259 234 201 213 177 116 140 139 137 135 140 142 134 144 145 146 146 144 147 142 139 131 130 133 131 129 119 109 105 113 111 110 110 109 106 101 102 100 102 102 105 104 102 101 101 103 102 100 98 95 93 92 91 90 87 84 83 80 78 77 75
216 219 223 257 231 197 202 230 238 244 254 258 249 246 224 200 193 199 207 211 220 229 246 268 268 270 223 193 146 134 143 146 142 145 145 139 138 140 146 152 163 156 153 151 136 138 143 134 128 132 126 125 127 128 120 119 112 111 112 114 109 109 108 109 112 109 106 102 105 105 101 101 99 99 100 98 96 94 90 88 87 85 83 81 80
236 209 199 220 239 221 221 225 232 229 217 247 250 245 257 235 206 196 204 210 213 216 218 252 273 286 259 177 175 133 143 142 143 146 143 143 140 134 141 145 141 132 138 141 144 146 145 128 128 134 138 134 132 133 128 126 117 121 126 121 129 121 120 119 113 111 110 112 108 106 107 102 101 102 107 105 100 97 95 93 93 90 89 87 84
237 240 201 200 221 224 219 213 235 242 220 232 259 260 241 235 227 203 201 203 191 174 198 221 291 288 313 231 169 167 132 150 150 148 146 144 142 140 135 141 143 141 140 145 150 148 138 137 140 142 144 139 140 137 131 117 115 118 122 123 120 116 118 120 117 113 115 115 109 106 104 104 104 105 107 110 101 94 92 95 95 94 92 92 89
224 228 238 227 252 253 241 221 215 224 231 236 261 275 257 276 255 221 175 157 164 189 128 332 284 286 301 269 211 188 132 152 150 145 149 151 151 143 144 147 150 142 146 160 163 158 140 147 143 149 152 141 139 136 131 128 126 125 125 126 125 123 125 126 120 111 112 116 116 114 111 107 104 103 106 100 96 99 100 97 95 91 90 90 89
222 233 226 242 256 252 232 221 210 212 229 235 254 268 276 329 327 28 166 157 186 204 176 264 271 282 289 278 246 190 159 154 154 153 152 155 155 151 151 151 152 155 156 158 151 141 140 150 151 151 150 151 145 139 133 135 131 124 126 130 130 130 133 124 114 119 123 127 119 112 109 111 110 108 107 105 104 103 102 99 96 94 93 92 91
232 211 224 229 243 254 249 210 191 195 197 220 241 287 282 248 59 30 44 207 199 184 184 212 239 277 338 353 338 348 300 172 154 154 153 154 155 156 158 155 154 163 149 141 142 139 143 152 151 149 149 147 144 144 145 141 131 131 132 134 127 126 127 122 123 128 128 122 121 118 115 116 115 113 112 109 106 104 103 102 99 98 95 94 93
231 209 191 206 228 236 235 218 194 187 196 198 180 234 270 276 253 101 32 16 251 222 174 204 224 271 41 54 61 46 9 318 196 154 156 150 155 160 164 163 159 158 155 148 145 144 146 161 153 151 150 152 153 149 142 141 141 135 135 131 131 130 130 131 133 132 129 126 121 120 122 120 120 117 112 108 105 104 101 96 94 94 94 95 94
225 229 221 198 205 222 228 220 211 188 193 199 203 205 202 235 276 139 115 335 341 306 242 215 209 189 68 67 91 96 66 302 303 201 144 152 157 163 168 168 165 165 155 156 156 155 161 167 149 145 154 162 157 153 146 147 145 139 140 136 137 137 136 135 136 136 135 135 127 125 122 120 117 115 113 112 112 109 107 104 102 100 97 93 94
220 223 236 243 232 233 236 220 195 189 199 203 219 203 193 189 234 235 172 157 97 28 342 19 168 85 76 81 68 53 71 329 337 301 160 145 159 167 170 168 166 159 160 161 160 159 160 154 146 151 163 170 165 151 154 154 150 149 147 145 144 143 141 143 139 142 141 135 127 126 127 127 121 119 118 118 115 112 108 107 106 101 94 97 98
226 220 223 233 236 242 248 236 199 207 202 204 211 207 200 193 205 232 169 172 174 132 128 71 85 96 96 67 83 109 304 325 310 326 292 151 155 158 159 166 161 155 159 160 159 158 150 145 146 155 165 168 154 162 161 161 156 154 151 151 151 148 149 144 145 148 141 135 130 129 130 127 126 124 121 118 118 119 116 112 108 104 101 99 102
213 215 220 227 226 222 233 245 231 218 221 216 215 208 208 209 218 207 209 201 185 159 152 122 56 65 78 79 103 117 131 249 210 172 293 282 149 152 157 160 153 155 154 156 162 160 151 148 152 158 145 165 168 170 157 172 159 160 160 153 152 150 148 146 151 146 139 138 139 138 136 133 132 129 121 120 119 114 113 111 109 108 107 107 106
209 201 210 221 227 227 218 227 219 220 224 229 226 220 213 209 214 198 210 212 208 165 166 143 125 51 49 35 11 85 102 58 297 250 97 302 188 132 134 129 141 150 151 155 160 158 155 152 157 157 160 152 173 172 163 180 163 167 162 155 154 155 153 154 155 143 142 144 145 144 143 137 129 124 128 126 121 115 111 111 111 108 109 109 110
216 209 208 205 217 228 226 226 215 220 226 232 234 229 221 214 188 213 208 205 216 176 170 124 184 185 155 78 335 347 18 327 250 245 118 302 287 132 136 134 138 140 141 148 157 160 160 158 158 162 163 147 157 158 158 177 179 172 167 162 159 158 159 160 156 147 148 147 150 149 148 137 130 131 131 128 122 115 117 117 117 115 113 114 115
208 209 209 209 216 217 222 218 221 220 226 229 226 231 224 219 203 205 209 218 212 178 172 180 184 139 114 116 205 152 221 221 249 223 152 124 279 144 141 135 138 140 137 137 156 161 162 162 164 163 160 155 157 157 158 170 183 180 174 176 165 162 161 164 159 153 152 152 153 150 142 139 138 139 138 132 123 122 121 121 119 119 120 116 113
279 262 230 213 208 210 215 212 218 214 219 225 222 226 221 221 210 209 191 210 203 213 178 181 153 139 171 198 177 146 187 233 214 218 145 139 243 209 139 142 134 136 139 147 165 159 161 163 164 156 162 160 166 162 162 167 189 182 175 169 171 164 166 168 162 154 154 156 158 153 151 152 148 143 137 130 128 127 126 123 121 122 121 117 113
15 280 247 221 207 207 207 213 216 216 216 226 228 227 223 218 210 207 203 209 211 190 187 181 187 192 151 122 70 202 212 195 165 216 128 185 217 188 152 145 145 151 156 157 165 162 160 166 167 149 157 166 168 171 167 174 185 173 166 166 168 180 170 170 163 159 160 164 162 158 160 151 141 138 133 124 125 128 128 126 124 125 126 121 117
220 219 240 245 225 215 212 216 217 218 222 229 236 236 229 222 215 212 218 214 209 187 188 192 194 206 204 177 168 176 171 159 134 221 177 229 184 193 161 162 152 152 164 161 169 174 174 169 168 165 168 170 168 176 173 177 177 169 165 173 171 190 186 173 172 164 166 170 167 164 160 152 143 138 136 135 137 136 132 129 127 128 130 128 125
231 224 228 239 248 267 280 247 223 218 222 233 236 232 229 225 217 213 219 214 201 211 198 180 190 222 218 193 115 80 117 132 189 132 186 186 176 177 190 191 168 161 169 180 173 176 186 169 161 165 171 175 178 179 175 175 172 169 171 178 174 188 188 180 178 171 170 173 169 170 167 155 150 147 147 147 143 140 135 133 133 132 132 131 126
266 261 258 310 304 270 246 244 233 216 212 223 234 235 232 227 218 215 216 214 211 213 199 179 183 201 199 202 196 142 171 171 213 207 157 172 184 160 188 184 167 178 173 179 180 179 178 172 158 160 165 182 190 181 172 173 174 173 177 180 177 193 192 183 185 177 176 174 174 177 172 163 158 157 156 152 148 142 139 138 136 135 135 135 131
240 245 18 276 267 277 274 257 247 235 218 220 230 231 233 229 221 215 214 223 220 222 200 195 191 190 175 202 188 179 170 204 195 207 142 156 182 176 182 163 181 173 240 204 205 182 179 176 167 160 163 179 183 180 168 170 171 172 174 178 181 196 193 184 191 176 185 181 180 179 174 166 168 164 160 157 152 147 144 141 139 140 139 138 137
228 215 211 231 284 271 271 278 277 268 245 227 227 223 220 225 220 213 211 205 231 224 212 200 197 186 186 176 185 177 184 198 204 206 194 151 165 190 181 172 186 191 174 220 205 183 172 168 167 160 162 169 181 178 170 173 172 172 173 176 181 191 194 183 179 179 183 185 183 186 179 175 176 168 166 161 158 152 149 147 147 145 144 143 141
216 224 204 199 220 232 226 231 244 255 265 253 242 236 227 223 214 198 211 209 218 218 214 207 198 193 184 180 190 184 185 189 186 194 168 150 123 173 180 192 190 159 195 196 196 190 174 175 171 170 167 169 180 179 179 175 176 176 172 176 174 182 190 187 176 175 186 193 191 190 190 184 182 172 171 168 161 157 155 153 153 149 148 148 146
254 246 234 216 225 228 215 221 229 257 264 270 274 278 298 277 241 209 214 213 217 216 211 203 188 194 188 186 193 191 186 187 189 177 177 177 169 169 177 165 159 171 160 184 185 182 190 182 179 174 181 171 180 184 179 173 179 170 171 177 174 176 180 187 185 176 186 197 194 200 196 192 191 176 176 176 163 165 164 161 156 152 151 151 149
303 291 276 243 235 248 246 233 213 215 234 224 237 233 236 230 229 226 194 204 209 215 219 208 190 188 190 192 192 193 196 197 185 179 187 164 166 154 190 167 164 162 152 165 170 166 174 188 162 169 185 182 186 177 177 174 175 169 168 178 174 173 170 176 183 184 190 197 198 206 199 191 207 189 190 181 170 168 167 157 147 148 157 156 153
307 296 281 271 254 246 255 255 241 230 227 226 238 251 249 235 228 224 199 204 201 200 216 211 200 195 181 184 196 192 207 197 181 173 171 157 167 167 154 145 130 160 108 172 145 149 211 196 174 180 179 184 195 175 174 170 166 171 170 171 177 172 174 175 180 181 187 192 187 194 189 193 209 185 210 176 181 156 147 134 139 150 164 158 160
307 295 295 283 270 269 250 253 256 246 227 242 229 236 250 249 235 230 230 201 190 195 205 208 206 201 190 193 191 193 192 187 174 179 172 177 167 167 157 149 115 130 172 196 146 191 164 186 192 179 190 180 195 180 172 171 173 172 169 167 175 175 174 178 182 183 180 183 186 176 175 178 173 166 189 179 177 140 136 139 144 154 159 160 167
302 301 297 290 282 276 260 258 261 232 215 228 240 228 225 237 231 222 221 204 195 194 204 201 201 201 200 201 190 195 183 181 181 175 175 170 168 165 169 167 158 168 162 159 204 207 151 151 206 201 172 173 215 183 171 161 169 171 168 168 168 177 178 177 183 185 177 171 172 168 169 167 156 163 157 140 148 141 143 143 147 151 157 161 165
303 300 299 296 289 282 289 283 270 231 203 196 225 242 232 233 236 231 224 213 208 201 191 188 201 197 198 206 207 198 191 178 175 172 167 166 172 177 180 179 171 157 169 178 195 179 169 174 174 204 170 191 191 196 166 168 167 167 170 171 172 172 182 179 181 185 179 174 171 173 172 174 169 169 166 156 154 148 147 146 148 151 156 163 146
313 307 303 299 295 296 292 282 269 259 241 227 243 262 258 246 233 239 249 222 215 177 161 175 182 186 187 200 208 199 192 178 183 177 173 172 171 179 182 175 166 169 161 169 188 179 155 164 170 180 182 190 181 190 167 167 168 169 170 174 175 178 181 185 185 187 185 178 179 176 178 179 176 168 160 159 157 152 151 151 155 157 163 165 146
319 318 317 314 312 307 288 277 268 249 245 239 226 222 222 227 208 194 236 279 229 189 193 182 166 171 183 203 207 199 181 189 183 184 174 171 177 176 170 149 152 153 150 145 140 190 152 178 181 180 176 175 179 176 163 172 175 175 173 174 179 178 174 186 187 190 185 183 179 178 176 179 182 171 163 160 159 157 157 159 158 163 172 164 153
324 324 326 326 324 320 306 287 280 267 247 250 278 275 228 170 261 277 324 83 4 210 132 141 178 178 171 192 207 208 197 201 189 184 172 152 163 184 162 140 159 159 140 136 150 110 40 161 176 186 153 162 166 177 170 177 179 181 171 170 170 161 167 180 193 190 184 185 180 181 178 177 185 178 170 166 164 161 163 164 164 168 172 156 161
333 336 335 333 330 326 309 302 306 323 255 225 251 27 85 101 105 36 52 38 80 24 84 80 186 190 196 190 195 211 216 235 203 192 148 147 143 68 100 155 186 151 126 112 137 159 213 185 116 136 159 165 165 172 169 172 168 185 178 158 149 159 167 167 178 195 189 187 178 184 181 176 186 186 175 169 164 164 166 167 166 170 164 162 169
339 338 338 335 334 326 316 326 333 343 20 59 60 60 62 73 58 346 6 54 186 167 124 180 196 183 177 214 210 204 189 223 228 225 152 153 143 175 170 171 158 169 167 161 187 174 183 158 139 181 166 177 172 182 172 169 166 171 153 152 159 163 170 160 169 187 193 189 175 181 178 174 184 189 169 171 165 165 167 169 169 171 167 169 174
344 343 344 348 347 335 343 346 326 355 23 25 31 57 64 77 73 172 279 340 278 50 251 181 155 152 181 222 220 77 2 201 74 40 32 111 165 172 131 126 168 191 179 180 180 188 172 174 165 174 171 181 192 178 174 173 163 166 154 158 158 164 164 162 174 173 182 185 171 177 171 170 182 178 166 170 167 169 170 172 173 174 171 173 176
359 359 3 4 10 12 13 16 11 3 6 24 42 50 43 64 44 54 48 37 31 120 276 314 98 147 83 37 36 53 65 157 130 76 121 148 203 169 155 164 192 193 188 189 203 176 174 155 178 170 172 167 192 165 164 156 155 163 165 158 159 161 162 173 178 179 176 177 170 173 167 169 176 172 171 171 170 170 172 175 176 177 174 174 176
359 1 9 12 21 22 20 18 18 15 12 17 26 33 54 57 39 2 85 64 39 23 45 338 1 48 65 107 126 268 138 138 120 178 187 140 231 222 152 168 191 197 186 188 200 179 167 167 158 169 157 163 165 159 158 154 160 163 161 159 169 168 166 171 168 170 153 169 165 170 166 168 176 176 174 171 170 172 176 179 180 179 178 174 177
8 13 13 19 29 32 27 20 12 11 13 18 21 19 25 65 76 90 45 69 138 61 47 332 50 105 192 195 114 96 80 80 205 189 165 179 195 201 184 175 184 174 104 272 238 179 168 163 157 138 151 164 149 163 172 166 165 168 165 168 168 164 148 152 159 147 157 166 156 164 170 173 181 179 176 173 173 178 182 184 181 179 176 175 180
18 24 23 28 25 26 25 23 15 2 2 4 19 9 4 16 22 15 28 51 148 129 143 163 173 176 163 151 107 194 165 171 191 172 173 186 192 192 169 161 160 100 108 108 41 340 135 150 141 155 153 178 157 163 177 177 172 171 165 156 170 169 159 155 143 132 153 173 178 182 184 181 179 179 180 175 177 181 183 181 176 170 174 180 179
16 23 24 26 24 24 20 22 16 10 360 8 8 351 350 360 6 2 357 322 257 173 170 252 21 16 331 112 158 204 222 191 176 183 201 165 179 159 127 129 135 144 155 134 114 102 208 186 137 165 170 167 167 165 163 162 170 185 183 149 161 164 168 165 168 156 169 165 173 178 165 152 159 163 152 170 179 180 179 173 172 173 178 179 182
20 19 22 20 22 21 17 20 16 16 9 13 5 341 329 359 0 355 27 35 51 74 76 81 102 93 35 17 301 263 215 219 172 174 182 167 162 141 146 125 131 139 140 132 158 118 135 149 197 190 177 164 168 160 163 173 186 187 199 140 152 163 157 148 192 180 161 170 181 164 180 175 154 150 151 159 183 177 177 169 174 179 177 180 185
24 19 19 22 26 21 14 14 17 16 13 7 354 357 340 333 31 44 47 40 45 62 68 70 73 73 75 76 51 58 53 44 27 21 24 14 349 138 131 148 146 143 164 168 162 137 147 147 131 139 121 74 70 141 149 81 34 74 126 130 142 145 134 127 107 163 167 156 158 178 169 141 127 125 143 159 172 177 177 176 182 177 184 182 183
26 21 19 21 19 20 22 19 18 14 14 4 359 4 5 27 49 45 44 42 40 45 50 54 54 40 20 17 29 36 41 47 52 60 72 57 56 74 79 85 130 171 170 170 179 163 159 140 146 126 134 140 121 106 86 87 40 104 118 110 131 139 151 149 153 52 111 144 121 110 131 151 143 121 93 84 85 117 132 180 182 181 183 188 185
33 31 29 21 16 16 18 24 26 15 10 6 6 8 12 26 45 52 47 47 45 42 37 39 37 41 35 28 28 27 21 34 64 65 69 70 62 68 75 79 70 48 44 117 159 149 132 131 106 109 84 40 134 118 121 111 65 17 77 104 111 137 137 124 120 147 218 159 136 113 78 36 95 103 90 57 47 57 44 115 150 143 139 130 124
35 36 30 27 24 21 24 25 22 15 9 6 9 11 16 23 34 56 49 50 52 42 35 31 32 41 39 23 18 22 9 17 58 87 83 78 73 54 62 62 53 50 53 79 126 148 138 120 142 131 133 184 201 127 140 146 129 119 353 78 125 114 117 120 139 127 22 121 120 109 103 75 83 107 99 53 55 66 70 73 88 95 98 101 103
38 36 30 30 28 27 25 25 23 22 21 4 11 15 21 27 30 48 54 52 56 52 41 32 24 34 35 29 23 22 7 11 357 30 68 65 64 57 42 44 49 40 44 51 69 73 55 109 110 133 190 189 167 130 141 149 148 164 152 136 126 114 101 82 97 103 60 59 128 123 100 76 71 106 99 89 71 70 63 100 105 106 109 111 112
39 37 30 30 29 28 25 25 30 30 19 10 15 20 23 32 32 43 50 50 54 52 46 43 38 29 21 18 23 22 25 33 359 355 48 59 74 79 67 53 52 54 46 32 41 66 76 64 64 79 56 56 98 110 132 153 146 154 160 162 146 123 109 111 77 59 54 19 100 111 133 142 138 82 75 81 80 75 59 68 104 112 111 112 112
42 42 38 37 34 30 27 27 33 30 21 17 19 22 23 29 39 47 45 44 45 46 43 35 28 26 27 20 18 20 23 34 40 66 79 84 69 74 72 68 63 60 52 23 57 72 68 75 82 90 89 80 72 73 94 119 114 108 108 98 97 108 117 110 114 12 57 340 29 116 113 132 133 114 100 55 72 81 60 61 61 94 108 110 112
43 40 38 37 34 35 33 31 31 31 27 17 19 20 19 23 44 45 44 46 45 46 41 35 29 30 29 18 20 22 29 21 7 34 62 81 72 70 74 73 70 64 64 47 40 68 88 93 94 87 82 73 70 68 67 79 106 125 118 116 137 140 130 126 115 100 86 313 350 83 122 126 149 121 114 84 71 85 85 66 54 73 112 122 121
47 42 40 41 39 37 38 37 30 34 31 21 22 22 22 20 39 51 51 51 47 46 44 38 32 34 37 35 34 27 35 19 24 29 32 58 71 74 73 66 63 66 55 64 79 57 87 95 84 81 80 77 70 66 63 61 56 58 142 153 165 147 141 135 134 123 121 31 345 57 112 129 131 128 112 113 87 52 71 79 93 102 101 97 101
57 51 45 47 47 42 39 40 36 38 34 26 23 26 29 25 33 47 49 55 53 44 43 39 36 36 32 33 29 25 31 33 36 35 30 33 43 48 64 86 74 62 22 32 81 75 61 59 47 48 47 46 54 62 58 55 48 43 40 100 139 138 134 125 122 125 84 352 271 220 121 140 137 159 137 136 104 73 44 93 119 125 112 118 122